Regional Weather Roundup
Issued by NWS Newport/Morehead, NC

Current Version | Previous Version | Graphics & Text | Print | Product List | Glossary Off
Versions: 1 2 3 4 5 6 7 8 9 10 11 12 13 14 15 16 17 18 19 20 21 22 23 24 25 26 27 28 29 30 31 32 33 34 35 36 37 38 39 40 41 42 43 44 45 46 47 48 49 50

000
ASUS42 KMHX 041325
RWRMHX
WEATHER ROUNDUP FOR EASTERN NORTH CAROLINA
NATIONAL WEATHER SERVICE NEWPORT/MOREHEAD CITY NC
900 AM EDT FRI SEP 04 2015

NOTE: "FAIR" INDICATES FEW OR NO CLOUDS BELOW 12,000 FEET
WITH NO SIGNIFICANT WEATHER AND/OR OBSTRUCTIONS TO VISIBILITY

NCZ015>017-031-032-045>047-102-103-041400-
NORTH COAST

CITY           SKY/WX    TMP DP  RH WIND       PRES   REMARKS
EDENTON        SUNNY     79  73  81 CALM      29.96S
ELIZABETH CITY SUNNY     77  74  90 SW3       29.95R
KITTY HAWK     SUNNY     82  76  81 NW5       29.94S
MANTEO         SUNNY     80  75  84 NW6       29.95S

$$

NCZ045>047-081-094-103-104-041400-
CENTRAL COAST

CITY           SKY/WX    TMP DP  RH WIND       PRES   REMARKS
FRISCO         PTSUNNY   81  73  76 VRB5      29.96R
SWANQUARTER      N/A     81 N/A N/A NW6       29.91S

$$

NCZ095-097-098-100-101-041400-
SOUTHERN COAST

CITY           SKY/WX    TMP DP  RH WIND       PRES   REMARKS
BEAUFORT       SUNNY     80  75  84 NW6       29.96R
CEDAR ISLAND     N/A     81 N/A N/A NW7       30.00R
JACKSONVILLE   SUNNY     78  72  81 CALM      29.96R
PINEY ISLAND   SUNNY    N/A N/A N/A NW7       29.96R
WILMINGTON     SUNNY     78  73  84 N3        29.96R


$$

NCZ011>013-027>030-043-044-078>080-089-090>093-098-041400-
COASTAL PLAIN

CITY           SKY/WX    TMP DP  RH WIND       PRES   REMARKS
AHOSKIE        SUNNY     77  71  82 CALM      29.98R
CLINTON        SUNNY     79  73  80 CALM      29.98R
ELIZABETHTOWN  SUNNY     77  74  88 CALM      29.97S
GOLDSBORO      SUNNY     78  73  84 VRB1      29.96R
GREENVILLE     SUNNY     77  73  88 CALM      29.99S FOG
HAVELOCK       SUNNY     80  74  81 NW5       29.97R
KENANSVILLE      N/A     77  71  82 CALM      29.98S
KINSTON        SUNNY     77  72  83 CALM      29.98R
NEW BERN       SUNNY     79  73  82 CALM      29.98R
RICHLANDS      SUNNY     79  70  73 CALM      29.97S
ROCKY MOUNT    SUNNY     77  70  79 N3        29.98R HAZE
WASHINGTON     SUNNY     78  73  82 CALM      29.97S
WHITEVILLE     SUNNY     77  73  88 CALM      29.96S

$$

AMZ130-135-150-152-154-156-158-170-250-252-270-ANZ085-086-088-633-658-670-041400-
MARINE OBSERVATIONS

STATION/POSITION TIME  TEMP    WIND        PRES    WAVE   SWELL
                       AIR SEA DIR/SP/G            HT/PER HT/PER
                 (UTC) (F)     (DEG/KT/KT) (MB)    (FT/S) (FT/S)
CHESAPEAKE LIGHT 1300   80      20/ 10/ 11 1014.8
64 E VA BEACH    1250   79 79  320/  4/  4 1013.5    1/12   2/12
DUCK             1300   80 80  320/  2/  3 1013.3
2 E DUCK         1211      79                N/A     1/12
OREGON INLET     1300   81 82  310/  6/  7 1013.9
13E OREGON INLT  1300      81                N/A     1/13
HATTERAS CG      1300   80 82  320/  8/  9 1014.1
DIAMOND BUOY     1250   82 85  340/  8/ 10 1014.1    1/ 9   2/ 9
CAPE LOOKOUT     1300   80     330/  4/  5 1014.2
BEAUFORT LAB     1300   80 82  350/  5/  6 1013.8
30 SE NEW RVR IN 1208   81 81   20/  6/  8 1014.5
30 SE NEW RVR IN 1225      81                N/A     1/12
27 SE WRIGHTSVLE 1300   78 82   20/  6/  6   N/A
5 SE WRIGHTSVLE  1208   78 82  350/  8/ 10 1014.2
225 S CAPE HAT   1250   82 84  340/ 10/ 12 1013.7    2/ 5   2/ 5
41 SE CHARLESTON 1250   82 83  330/ 10/ 10 1014.0    1/12   2/12

$$


USA.gov is the U.S. government's official web portal to all federal, state and local government web resources and services.